sat.trackr.live / text

‹ back to catalog

STARLINK-36425

NORAD 67467 · 2026-008Y

PAYLOAD ACTIVE UNKNOWN

§ Identity

Operator
Country
US
Launch date
2026-01-14
Launch site
AFETR
Launch vehicle
Mass (kg)
RCS (m²)

Purposes: comms

External: N2YO · Heavens-Above · Gunter

§ Orbital elements

Epoch: 2026-05-25T00:35:28.629024Z

Period
94.27 min
Inclination
43.0014°
Eccentricity
0.0001354
Mean motion
15.27592358 rev/d
Perigee alt
482.1 km
Apogee alt
483.9 km
Semi-major
6,861.1 km
B*
3.7627e-4
RAAN
134.3953°
Arg perigee
272.2593°
Mean anomaly
87.8104°
Rev number
2,124

§ Raw data

STARLINK-364251 67467U 26008Y   26145.02463691  .00010110  00000+0  37627-3 0  99952 67467  43.0014 134.3953 0001354 272.2593  87.8104 15.27592358 21249

JSON: /api/v1/satellites/67467 · /tle

For live sub-satellite position, see the globe view (requires WebGL).

§ Visibility from observer

Set your observer location to see the next 7 days of passes ≥ 10°. The values pass through the URL so the page stays shareable.

No JS? Fill the form by hand. The geolocation button needs JavaScript.